NOAA NWS Hourly Roundups by Site

Regional Weather Roundup for Baltimore MD/Washington, DC

To Select Another Site Choose from List

Select Site:  

000
ASUS41 KLWX 050312
RWRLWX

REGIONAL WEATHER ROUNDUP
NATIONAL WEATHER SERVICE BALTIMORE MD/WASHINGTON DC
1000 PM EST THU MAR 04 2021

Note: "FAIR" indicates few or no clouds below 12,000 feet
with no significant weather and/or obstructions to visibility.
 TC=TEMPERATURE CELSIUS

 * =Non NWS site. Station does not report precipitation (e.g. rain,
    snow, etc.), thunder, or fog.

DCZ001-MDZ009-015-VAZ040>042-051-053>054-050400-
WASHINGTON METRO

CITY           SKY/WX    TMP DP  RH WIND       PRES   REMARKS
WASHINGTON NAT MOCLDY    38  18  44 NW13G26   30.04R WCI  30
DULLES         PTCLDY    35  17  47 NW17G26   30.03R WCI  25
ANDREWS AFB    MOCLDY    36  17  46 NW17G24   30.00R WCI  26
FT BELVOIR     CLEAR     37  16  41 NW10G24   30.03R WCI  30
QUANTICO       CLEAR     40  19  43 NW13G26   30.04R WCI  32
COLLEGE PARK*  PTCLDY    36  14  40 NW16G22   30.02R WCI  26
LEESBURG*      CLEAR     34  19  55 NW16G23   30.05S WCI  23
MANASSAS*      PTCLDY    36  19  50 N15       30.05R WCI  27
GAITHERSBURG*  CLEAR     33  17  51 NW10G18   30.02R WCI  25

$$

MDZ006>007-011-014-050400-
BALTIMORE METRO

CITY           SKY/WX    TMP DP  RH WIND       PRES   REMARKS
BWI AIRPORT    PTCLDY    36  17  46 NW13G25   30.01R WCI  27
MARTIN STATE   PTCLDY    36  18  48 NW16G29   30.02R WCI  26
ANNAPOLIS      MOCLDY    39  21  48 NW22G33   30.00R WCI  29
ABERDEEN*      CLEAR     34  15  44 NW8G17    30.00R WCI  27
FORT MEADE*    CLEAR     34  21  60 NW10G25   30.04R WCI  26

$$

MDZ012-015-019>023-050400-
MARYLAND EASTERN SHORE

CITY           SKY/WX    TMP DP  RH WIND       PRES   REMARKS
OCEAN CITY     CLEAR     41  23  48 N10G21    29.92S WCI  35
SALISBURY      CLEAR     40  21  46 NW10G23   29.93R WCI  33
BAY BRIDGE AP* CLOUDY    37  21  52 NW21G31   30.00R WCI  27
CAMBRIDGE*     MOCLDY    39  21  48 NW20G29   29.97R WCI  30
EASTON*        MOCLDY    39  21  48 W16G25    30.01R WCI  30

$$

MDZ017>025-050400-
SOUTHERN MARYLAND

CITY           SKY/WX    TMP DP  RH WIND       PRES   REMARKS
PATUXENT RIVER CLEAR     41  21  44 NW29G35   29.97R WCI  30
ST INIGOES     CLEAR     44  19  36 NW9G25    29.97R
LEONARDTOWN*   CLEAR     37  19  48 NW7       30.01R WCI  32

$$

MDZ003>005-050400-
NORTH CENTRAL MARYLAND

CITY           SKY/WX    TMP DP  RH WIND       PRES   REMARKS
FREDERICK*     CLEAR     34  18  51 NW16G24   30.05S WCI  23
HAGERSTOWN APT CLEAR     30  15  53 NW17      30.04R WCI  18
WESTMINSTER*   CLEAR     32  16  51 NW15G22   29.99F WCI  22

$$

MDZ501>502-050400-
WESTERN MARYLAND

CITY           SKY/WX    TMP DP  RH WIND       PRES   REMARKS
OAKLAND*       CLOUDY    19  12  73 NW10G21   30.00S WCI   8
CUMBERLAND*    PTCLDY    29  13  50 NW14G25   30.15R WCI  19

$$

VAZ025>031-050400-
SHENANDOAH VALLEY

CITY           SKY/WX    TMP DP  RH WIND       PRES   REMARKS
WINCHESTER*    MOCLDY    32  18  55 NW15G22   30.04S WCI  22
FRONT ROYAL*   CLEAR     34  19  55 N7G16     30.04R WCI  28
LURAY*         MOCLDY    36  21  55 N9G23     30.02S WCI  29
NEW MARKET*    PTCLDY    35  20  53 NE5       30.03S WCI  31
STAUNTON*      CLEAR     36  22  55 N6        30.02R WCI  31
WAYNESBORO*    CLEAR     38  20  47 NW12G22   29.99R WCI  31

$$

WVZ021-048>050-054>055-050400-
EASTERN WEST VIRGINIA PANHANDLE

CITY           SKY/WX    TMP DP  RH WIND       PRES   REMARKS
MARTINSBURG    MOCLDY    31  13  47 N17G29    30.05S WCI  19
PETERSBURG*    MOCLDY    35  21  55 N16       30.09R WCI  25

$$

VAZ036>039-050-050400-
CENTRAL FOOTHILLS

CITY           SKY/WX    TMP DP  RH WIND       PRES   REMARKS
CHARLOTTESVILL CLEAR     42  21  43 N12       30.00R
CULPEPER*      CLEAR     39  18  43 N12G24    30.04R WCI  31
ORANGE*        CLEAR     37  21  52 N10       30.01R WCI  30
GORDONSVILLE*  CLEAR     37  22  55 NE5       30.00R WCI  33
WARRENTON*     MOCLDY    38  17  42 N7        30.03S WCI  33

$$

VAZ055>057-050400-
NORTH AND CENTRAL PIEDMONT

CITY           SKY/WX    TMP DP  RH WIND       PRES   REMARKS
FREDERICKSBRG* CLEAR     40  19  42 N12G21    30.02R WCI  34
STAFFORD*      CLEAR     38  11  32 N18G29    30.06R WCI  29

$$

NCZ024-NYZ072-PAZ021-071-VAZ022-071-050400-
OTHER REGIONAL OBSERVATIONS

CITY           SKY/WX    TMP DP  RH WIND       PRES   REMARKS
NEW YORK CITY  CLEAR     30   4  33 NW9G23    29.91R WCI  22
PHILADELPHIA   CLEAR     34  13  41 NW13      29.95S WCI  25
PITTSBURGH     PTCLDY    23  12  62 NW13G21   30.17R WCI  11
ROANOKE        CLEAR     46  17  31 NW10G20   30.01S
RICHMOND       CLEAR     42  22  44 N13       29.98R
RALEIGH        CLEAR     53  22  29 VRB5      29.95R

$$

ANZ530>537-050400-
MARINE OBSERVATIONS

STATION/POSITION TIME  TEMP    WIND        PRES
                       AIR SEA DIR/SP/G
                 (UTC) (F)     (DEG/KT/KT) (MB)
THOMAS PT LIGHT  0300   38 40  300/ 18/ 21 1016.9R
TOLCHESTER       0230   38 43  330/ 21/ 24 1016.0R
GOOSES REEF      0242   40 40  330/ 19/ 21 1011.1F
COVE POINT       0230   41     320/ 27/ 30   N/A
BALT HARBOR      0230   37 41  360/ 17/ 25 1015.8R
BALT KEY BRIDGE  0230   37     320/ 23/ 27 1015.5R
WASH DC CHANNEL  0230   39 44  320/ 16/ 25 1017.2R
DAHLGREN         0224   41 45  340/  8/ 16 1015.7
LEWISETTA        0224   43 43  350/ 14/ 20 1015.2
SOLOMONS ISLAND  0230   41 42  330/ 21/ 27 1015.0R
PINEY POINT      0224          340/ 19/ 25   N/A
POTOMAC BUOY     0254   41 40  340/ 23/ 27 1014.8R
CAMBRIDGE PIER   0230   42 42  310/ 20/ 27 1014.4R
BISHOPS HEAD     0230   41 46  350/ 15/ 22 1014.5R
CHESAPEAKE CITY  0230   37 41  340/  6/ 14 1015.1R

$$



 

View Past Reports for Baltimore MD/Washington, DC.

Products Courtesy of NOAA-NWS
NWS Information Parsing Script by Ken True at Saratoga Weather - Script by SE Lincoln Weather.

canadians